Theta_e
289 289 289 288 288 288 288 288 288 288 288 289 288 289 287 287 285 284 284 286 286 288 287 286 288 288 288 288 289 288 288 288 285 286 286 286 287 286 286 287 289 290 290 292 293 294 295 296 297 297 297 298 298 297 297 297 297 298 298 298 298 297 295 294 294 293 294 294 294 294 294 294 294 295
289 288 289 289 288 288 288 288 288 288 288 288 288 287 287 287 285 285 283 284 287 287 288 287 287 288 288 288 288 289 288 288 285 286 286 286 286 285 285 286 287 288 289 289 290 292 293 295 296 296 296 297 297 297 297 297 297 297 297 296 295 294 293 292 292 293 293 293 293 293 293 294 294 294
289 288 288 288 288 288 288 288 288 288 288 287 287 287 287 287 287 285 285 282 286 288 286 288 288 287 288 289 288 288 289 288 286 286 286 286 286 285 285 285 286 287 288 288 288 290 292 293 294 295 295 296 296 296 296 296 296 295 295 294 292 292 291 291 292 292 292 292 292 292 292 293 293 294
289 288 288 288 288 288 288 288 288 288 288 288 287 287 287 287 287 286 285 283 283 288 287 288 289 289 288 288 287 287 288 288 286 286 286 286 285 285 285 285 285 285 286 286 287 287 288 290 292 293 294 293 294 294 294 294 294 293 292 291 290 290 290 291 291 291 291 292 292 291 291 292 292 293
289 288 288 288 288 289 288 288 289 288 288 288 287 288 287 286 287 286 285 283 283 286 289 288 288 288 288 287 288 287 287 287 287 286 286 286 286 285 285 285 285 285 285 286 286 286 287 288 289 290 290 291 291 291 292 291 290 290 289 289 289 289 290 290 290 291 291 291 291 290 291 291 291 292
289 288 288 288 288 289 288 288 288 288 288 288 287 287 287 286 287 287 285 284 283 283 286 287 288 287 288 285 288 286 286 286 286 285 286 286 286 285 285 284 285 284 284 285 285 286 286 286 287 287 288 289 289 288 288 287 287 288 288 288 288 288 289 289 289 289 289 289 289 289 290 290 290 291
289 288 288 288 288 289 288 288 288 288 288 288 287 287 287 287 287 287 287 285 283 283 284 287 286 286 287 286 286 287 287 286 286 285 285 285 285 285 285 284 284 284 284 284 285 285 285 286 286 286 286 286 287 287 287 287 287 287 287 287 287 287 287 287 287 287 287 287 288 288 288 289 289 290
289 288 288 288 289 289 288 288 288 288 288 288 287 287 288 287 287 287 287 287 285 284 283 285 285 286 285 286 287 287 286 285 285 285 285 285 284 284 285 284 284 284 284 284 284 285 285 285 285 285 285 286 286 286 286 286 286 286 286 286 286 286 286 286 286 286 286 287 287 287 287 287 288 289
289 289 288 288 289 289 288 288 288 288 288 288 287 287 287 287 287 287 287 287 286 284 283 284 286 286 285 286 286 286 284 284 284 284 284 284 284 284 284 284 284 283 283 283 283 284 284 284 284 284 285 285 285 285 285 285 285 285 285 285 285 285 285 285 285 285 285 286 286 286 286 286 286 287
289 289 289 289 289 288 288 287 288 288 288 288 287 287 287 287 287 287 287 286 286 285 284 284 284 285 284 284 284 285 285 283 282 283 283 284 283 283 282 283 283 283 283 283 283 283 283 283 284 284 284 285 285 285 284 284 284 284 284 284 284 284 284 284 284 284 284 285 285 285 285 285 285 286
289 289 289 289 289 288 288 288 288 288 288 288 287 287 287 287 287 286 286 286 285 285 284 284 284 284 285 284 282 285 285 283 282 281 281 281 283 283 282 281 282 283 282 283 283 283 283 283 283 283 284 284 284 284 284 283 283 283 283 283 283 283 283 283 284 284 284 284 285 285 285 285 285 285
288 288 288 288 289 289 289 288 288 288 288 288 287 288 287 287 286 285 285 285 284 284 284 283 283 284 283 284 284 284 283 281 281 282 281 279 280 280 281 281 280 282 282 281 282 283 283 283 283 283 283 283 283 283 283 282 282 282 282 282 282 282 283 283 284 284 284 284 284 284 284 285 285 284
288 288 288 288 288 289 288 287 287 288 288 288 287 287 287 287 286 285 285 285 284 284 284 283 284 283 283 283 282 282 281 281 281 282 281 279 280 280 280 280 282 281 281 281 282 282 282 281 281 281 281 281 281 281 281 281 281 281 281 281 282 282 283 283 283 283 284 284 284 284 284 284 284 284
287 287 288 288 286 286 285 285 286 286 287 286 286 286 287 286 286 285 285 284 284 284 283 283 283 282 282 283 283 282 282 283 282 281 280 278 279 279 278 279 281 282 281 280 279 280 282 281 280 280 279 280 280 280 279 279 279 280 281 281 282 282 282 283 283 283 283 283 283 283 283 283 284 284
287 287 287 287 287 286 285 285 285 286 286 286 286 286 286 286 286 285 284 284 284 284 283 284 283 283 282 283 283 282 282 282 281 280 279 279 278 277 276 275 279 282 280 279 278 278 280 280 278 278 278 279 279 279 279 280 280 280 281 281 281 281 282 282 282 282 282 282 282 283 283 283 283 283
286 287 287 287 288 287 287 287 286 285 285 286 286 286 286 286 286 286 285 284 284 284 283 283 283 283 282 282 283 282 281 281 280 280 279 278 277 277 276 276 275 280 281 278 276 276 279 279 278 276 277 278 278 278 279 280 280 281 281 281 280 281 281 282 282 282 282 282 282 282 282 282 282 283
286 286 287 287 287 288 285 285 286 286 286 286 286 286 286 286 287 287 287 286 285 285 284 283 283 283 283 282 282 282 281 281 278 278 278 278 278 277 276 277 277 279 280 277 275 274 276 277 275 275 276 277 278 278 278 279 279 280 280 280 280 280 280 281 281 281 281 281 281 281 281 282 282 282
287 287 286 286 286 287 287 286 286 286 285 286 286 286 286 286 286 286 287 287 286 285 285 284 283 284 283 281 282 282 281 279 278 278 277 278 277 277 277 278 278 278 279 276 275 273 274 276 275 274 275 277 276 277 278 279 279 279 279 279 279 280 280 280 280 280 280 280 281 281 281 281 281 281
287 287 287 287 286 287 287 287 286 286 286 286 286 285 285 286 286 286 287 287 286 286 285 285 284 283 283 282 281 281 281 280 280 280 279 279 278 278 278 277 278 278 279 277 275 270 273 275 273 273 274 275 275 276 277 278 278 278 279 279 279 279 279 279 279 279 279 279 280 280 280 280 280 280
288 288 288 287 287 287 287 286 286 286 286 286 285 285 285 285 286 286 287 287 287 287 286 284 283 282 282 281 281 281 281 280 281 280 280 279 277 276 275 274 275 274 277 277 274 271 271 274 272 272 274 274 274 275 275 276 277 278 278 278 278 278 278 278 278 278 278 278 278 279 279 279 279 279
288 288 288 288 287 287 287 287 287 287 285 284 284 284 284 284 284 284 283 282 282 282 282 282 282 282 282 282 282 282 283 281 280 279 277 275 276 274 271 271 272 272 274 275 274 272 270 272 272 271 273 273 272 272 273 274 276 276 277 277 277 277 277 277 277 277 277 277 278 278 278 279 279 278
288 288 286 286 287 287 286 287 287 287 286 284 283 283 283 282 281 281 281 280 281 282 282 282 282 281 281 281 281 280 280 278 278 278 274 275 275 272 271 270 271 272 273 273 274 271 270 272 272 270 271 271 271 272 272 273 273 275 275 275 275 275 275 275 276 276 276 277 277 277 278 278 278 274
287 287 286 285 285 286 286 287 287 287 286 285 284 283 282 281 280 280 280 279 278 278 278 278 279 279 279 279 279 279 277 276 276 277 275 274 273 271 271 271 270 268 270 273 274 269 269 270 270 270 267 266 269 271 271 271 271 271 271 271 271 273 273 274 275 275 276 276 276 276 277 277 276 273
286 286 286 286 286 286 286 286 286 286 286 285 285 283 280 280 279 281 280 279 279 278 278 277 278 278 278 278 277 277 276 276 275 275 274 274 273 271 270 269 269 267 269 272 274 270 270 270 268 270 268 264 263 268 269 269 270 270 270 270 270 271 272 273 273 274 274 274 274 275 276 276 275 271
285 285 285 286 286 286 286 286 286 286 286 286 285 282 281 281 281 280 279 278 278 277 277 277 277 277 276 276 276 275 275 274 274 274 274 273 273 271 270 269 268 268 270 272 273 270 267 268 266 267 266 266 265 265 266 268 269 269 270 269 269 269 270 269 270 269 271 272 273 273 273 274 274 271
285 285 285 285 284 285 285 286 286 286 286 286 283 282 282 281 280 279 279 278 277 277 276 275 274 274 273 273 274 274 273 273 273 273 272 272 272 272 272 270 269 267 268 271 272 269 267 265 266 264 264 264 263 265 264 264 266 268 269 269 269 269 269 268 268 268 268 268 268 269 270 273 274 274
285 286 285 284 283 284 284 285 286 286 286 285 282 282 282 281 280 279 277 275 275 274 273 272 271 272 272 272 272 272 272 272 272 272 272 272 272 271 271 271 270 269 269 270 270 268 267 265 266 265 263 264 263 263 263 262 264 268 267 268 268 268 268 268 267 267 267 267 267 270 271 272 272 272
286 285 284 283 283 283 284 285 285 285 285 283 283 282 281 281 279 276 274 274 273 272 271 271 271 270 271 271 271 271 271 271 271 271 271 270 270 269 269 269 268 269 268 268 268 268 267 265 264 265 265 263 262 261 260 264 265 265 264 266 267 266 267 267 266 266 266 266 266 266 266 266 266 266
285 285 284 283 283 283 284 284 284 284 283 283 282 281 280 278 276 274 274 273 272 271 270 271 271 271 271 271 271 271 271 270 270 268 268 268 267 267 267 266 266 266 266 266 266 266 266 265 264 265 264 264 262 262 262 261 263 263 264 263 262 265 266 266 265 265 265 265 265 265 265 265 264 265
285 284 283 282 282 283 283 283 282 281 281 281 280 279 276 275 274 274 273 272 271 270 271 271 270 270 270 270 270 269 268 267 266 266 265 265 265 265 264 264 264 265 265 265 266 266 266 265 265 265 263 263 263 262 262 261 261 263 263 262 263 264 265 265 265 265 264 264 264 264 264 265 264 264
284 283 282 282 282 283 283 281 279 278 278 277 276 274 274 274 273 272 272 272 271 271 270 269 269 269 269 269 267 265 265 265 265 266 264 263 263 263 263 262 262 262 264 265 265 265 265 265 265 264 262 261 262 262 262 262 261 261 262 263 262 260 262 264 264 264 264 264 264 264 264 264 264 264
282 281 281 281 280 279 278 277 276 275 274 273 273 272 272 272 271 271 270 270 270 270 270 269 268 267 266 264 265 265 264 264 264 264 263 262 262 263 262 260 260 262 262 263 264 264 264 264 263 263 263 262 260 261 262 261 260 260 260 261 262 262 263 262 262 263 264 263 262 262 262 262 262 262
280 279 279 277 276 276 275 273 273 272 271 271 271 270 269 269 269 268 268 268 268 268 267 266 265 265 265 264 264 263 263 263 263 263 262 262 261 261 261 260 260 260 260 261 262 263 263 263 263 263 262 262 262 261 260 258 259 261 260 260 261 261 262 263 263 262 263 261 260 261 260 261 262 262
278 277 276 275 275 274 273 272 272 271 271 270 270 269 269 268 267 267 267 268 267 266 265 265 264 263 263 263 263 262 262 262 262 262 262 261 261 260 260 259 260 261 260 260 260 261 261 262 262 261 261 261 261 261 260 258 258 259 260 260 260 260 261 262 262 262 261 261 260 259 259 260 262 262
277 276 275 275 275 274 273 272 272 272 271 270 270 269 268 267 267 266 266 267 266 264 263 263 263 263 262 262 262 261 261 261 261 261 261 261 260 259 259 259 259 259 259 259 259 260 260 260 260 259 259 259 259 260 264 260 258 258 259 260 260 260 260 261 262 262 261 261 261 258 258 259 259 261
276 276 275 274 273 273 272 272 272 271 271 270 270 269 267 266 266 265 265 265 264 263 263 262 262 262 261 261 261 260 260 260 260 260 259 260 259 259 259 259 259 259 259 259 259 260 260 259 259 257 256 256 256 256 257 265 264 259 258 258 260 260 261 261 261 261 260 259 260 259 257 257 258 260
276 275 274 273 273 272 271 272 271 271 270 270 269 268 267 266 266 265 264 264 262 262 262 262 261 261 261 260 260 260 259 259 258 259 259 259 259 259 258 258 258 258 258 258 259 259 259 258 258 257 256 255 255 254 256 260 263 266 261 259 260 261 260 260 259 259 259 259 259 259 258 258 258 260
275 274 273 273 272 272 271 271 270 270 269 268 267 266 266 265 264 263 262 261 261 261 261 261 261 260 260 260 259 259 259 259 259 258 258 258 258 257 258 257 257 258 258 258 258 258 259 258 257 257 256 254 254 254 254 258 259 260 264 262 259 259 260 258 257 257 258 259 259 259 260 259 259 260
275 273 272 272 272 271 270 269 268 268 267 266 265 264 264 263 262 261 261 261 261 260 260 260 260 260 259 259 259 258 258 258 258 258 258 258 258 257 257 257 256 257 257 257 258 258 258 257 257 257 257 255 254 255 256 255 255 258 261 264 261 258 258 258 257 258 258 258 259 260 261 262 263 267
274 273 272 272 271 269 268 267 266 266 265 265 264 264 263 262 262 261 261 260 260 260 260 259 259 259 258 258 258 258 258 257 256 257 257 257 257 257 256 256 256 256 256 255 256 257 257 257 258 258 257 258 258 258 257 257 256 257 257 259 264 261 259 258 257 257 257 259 260 259 259 260 259 261
268 269 268 268 267 266 266 265 265 264 264 263 262 262 262 262 261 261 261 260 259 259 259 259 258 258 258 258 258 257 256 257 257 257 256 256 256 256 256 256 255 256 255 255 255 255 256 258 259 259 258 257 257 257 255 253 253 254 256 258 262 265 265 265 261 260 259 260 260 259 258 258 259 260
268 267 265 265 266 265 265 264 263 263 263 262 262 261 260 260 260 259 259 258 258 258 258 258 258 258 258 258 257 257 256 256 256 256 256 256 255 255 255 255 254 255 255 254 255 256 258 258 258 257 257 256 255 253 252 253 253 254 256 257 259 262 264 265 266 266 263 261 260 259 259 259 260 259
265 266 264 263 263 263 263 262 262 262 262 261 260 260 260 259 259 258 258 258 258 258 258 258 258 257 257 257 257 257 256 256 256 255 255 255 255 254 254 255 255 255 255 255 255 256 256 257 256 256 256 255 255 254 252 253 254 254 255 256 257 259 260 264 266 267 267 268 267 264 262 260 258 256
264 264 263 262 262 261 261 261 261 261 260 260 260 259 259 258 258 258 258 258 258 257 257 257 257 257 256 257 256 256 256 255 255 255 254 255 254 254 254 254 254 254 254 254 254 255 255 255 256 256 254 254 255 254 253 254 254 255 255 256 257 257 257 259 260 263 265 266 267 268 268 268 267 267
263 263 262 262 262 261 261 260 260 260 259 259 259 258 258 258 257 257 257 257 257 257 256 256 256 256 256 256 256 255 255 256 255 255 255 255 255 254 254 254 254 254 253 254 253 253 254 254 255 255 254 254 255 255 255 255 254 255 255 255 255 257 258 259 258 259 260 260 264 267 268 268 268 268
Wind_Speed
3 3 3 4 3 3 3 3 3 3 2 2 2 2 2 2 1 2 2 2 2 3 4 2 2 4 3 3 3 4 4 2 2 5 5 5 6 7 11 14 14 14 15 16 17 18 18 18 19 19 19 19 20 19 19 19 19 20 20 20 20 20 20 21 22 23 23 24 24 25 25 25 25 25
3 3 2 3 3 3 2 2 2 2 2 2 1 1 1 1 1 2 3 5 3 3 3 3 3 3 3 3 4 4 5 3 3 5 6 6 6 8 12 13 13 13 15 15 16 17 18 19 19 19 20 20 20 19 19 19 19 19 20 20 20 20 21 21 22 24 24 25 25 26 26 26 25 25
3 3 3 2 3 3 3 3 3 2 2 2 2 2 2 1 2 2 3 5 4 2 4 3 4 5 5 4 5 5 5 4 4 6 6 6 6 10 10 10 11 13 13 14 15 16 18 19 19 19 20 19 19 19 19 19 19 19 19 19 19 20 21 22 23 24 24 25 26 26 26 26 26 26
3 4 4 4 3 3 3 3 3 3 3 3 3 3 3 3 3 3 4 6 8 5 5 6 5 5 5 5 6 7 5 4 8 6 6 6 7 7 6 8 11 12 13 13 15 17 18 19 19 19 19 19 19 19 19 19 19 19 19 19 20 21 22 23 24 25 25 25 26 26 26 26 27 26
4 4 4 4 4 4 4 4 4 4 4 4 4 4 4 4 5 5 6 7 9 8 6 6 6 5 5 6 7 7 6 6 5 5 6 6 6 6 6 6 10 11 12 13 15 17 18 18 18 18 18 18 18 18 18 18 18 18 19 20 21 22 24 25 25 25 25 25 26 26 26 27 27 27
5 5 6 6 6 6 6 5 6 5 5 5 6 6 6 6 6 7 7 8 8 10 7 7 6 6 5 7 6 7 7 7 6 7 6 6 6 6 6 6 7 11 12 13 15 17 18 18 18 18 17 17 17 17 17 17 18 19 20 21 23 24 25 26 26 25 26 26 26 27 27 27 27 27
7 7 7 8 7 5 7 8 8 7 8 7 8 8 7 8 8 8 9 8 9 10 10 8 8 7 6 7 7 7 7 6 6 8 7 6 5 6 7 7 7 9 12 13 15 17 18 18 18 18 17 16 16 17 17 17 18 20 21 22 23 25 25 25 25 25 25 26 26 27 27 26 27 28
8 8 9 9 9 8 9 9 8 8 8 9 8 9 9 9 10 9 9 10 10 10 10 9 8 7 7 7 7 6 6 7 7 7 7 7 7 7 7 7 7 8 11 14 16 17 17 17 16 16 16 16 16 16 17 18 19 20 22 24 25 25 26 25 25 25 25 26 26 26 26 26 27 28
9 9 10 10 9 9 9 9 9 9 10 9 9 10 9 9 9 8 8 9 9 10 11 10 8 8 8 8 8 8 8 7 7 7 7 7 7 8 8 7 7 11 13 14 15 15 14 14 15 15 14 15 15 16 18 19 19 21 23 24 25 25 25 25 25 25 26 26 26 26 26 27 28 28
10 10 11 11 10 10 10 10 10 10 11 9 9 11 10 9 8 9 9 9 10 10 11 10 10 9 8 8 8 7 7 7 7 7 7 7 7 7 7 6 6 6 6 7 7 8 10 11 12 13 14 15 16 17 18 19 21 22 23 24 24 24 24 24 24 25 25 25 26 27 27 28 28 28
11 11 11 11 11 11 11 11 11 10 10 9 10 11 10 9 9 9 9 9 10 10 10 10 10 10 9 9 9 7 6 7 7 8 8 7 5 6 7 8 6 6 8 10 12 11 10 12 11 13 15 16 17 18 19 21 22 22 22 22 22 23 23 23 24 24 25 26 27 27 27 27 28 28
11 12 12 12 12 12 12 12 11 11 10 9 9 10 9 9 10 10 10 9 10 10 10 10 10 8 8 8 8 7 7 7 8 7 6 7 7 8 7 7 8 7 8 8 7 7 8 9 11 13 14 15 17 19 20 20 20 21 21 21 21 21 22 24 24 25 26 26 26 27 27 27 28 28
12 12 12 12 12 13 14 15 13 12 9 8 10 9 9 10 10 10 10 9 9 9 9 10 9 8 9 9 8 8 8 8 7 5 5 8 8 8 7 7 7 7 8 7 7 8 8 8 9 9 9 10 15 16 18 16 18 18 17 18 20 22 23 24 25 25 25 26 27 27 27 28 28 28
12 13 12 11 16 16 16 16 17 17 16 16 13 11 9 10 10 10 10 10 10 9 10 10 9 9 10 9 8 8 8 6 5 6 6 8 7 7 8 8 6 5 7 8 9 8 8 10 11 10 12 11 11 10 10 9 12 15 20 21 22 23 24 25 25 25 25 25 26 27 27 27 28 29
12 11 12 12 13 15 16 16 19 16 17 17 19 20 19 16 12 10 11 11 10 10 10 9 9 10 10 9 7 7 6 5 6 6 6 7 7 7 8 9 6 3 2 6 9 11 10 10 12 11 11 11 10 10 10 15 18 19 21 22 23 23 24 25 25 25 26 26 27 27 27 28 29 30
11 12 11 10 9 10 13 11 12 15 19 19 19 21 20 20 21 19 14 10 10 10 10 10 10 9 10 8 6 6 5 6 5 6 7 7 8 8 9 8 9 6 7 9 12 14 10 10 11 12 10 11 11 10 13 18 20 20 21 22 23 23 24 25 25 25 25 26 26 27 28 28 29 30
12 11 10 10 9 9 13 12 12 11 11 16 19 19 19 19 20 20 22 20 15 10 10 10 10 9 8 7 6 5 5 4 7 7 8 7 7 9 11 10 10 8 7 11 13 15 10 9 12 12 10 10 10 10 13 17 19 20 21 22 22 24 24 24 24 24 25 26 27 28 28 29 29 30
12 12 11 10 10 9 9 10 11 11 12 10 10 12 13 13 14 18 20 19 19 16 11 10 10 8 6 7 5 4 3 6 7 7 8 8 10 11 11 10 9 10 9 11 13 14 11 9 10 11 10 9 10 10 13 18 19 20 21 22 22 23 23 23 24 25 26 27 27 28 29 30 31 31
13 12 11 11 11 10 9 8 10 10 10 10 9 10 10 11 11 11 11 12 11 12 12 13 10 7 5 5 6 5 5 7 7 8 10 11 9 8 8 10 11 11 10 12 10 14 11 8 10 11 11 10 10 9 13 17 18 20 21 22 22 21 22 22 24 25 26 27 27 29 30 31 32 32
11 11 11 11 11 11 11 11 12 12 10 10 11 11 11 10 10 10 7 6 7 9 9 8 6 5 4 4 5 6 6 6 8 8 6 5 6 8 9 11 10 12 10 9 9 12 12 8 11 12 10 10 11 10 11 14 18 20 22 22 21 21 22 23 24 25 25 26 27 29 30 30 31 32
11 11 12 12 11 11 12 12 13 16 14 11 12 11 11 9 8 8 5 6 7 6 6 7 6 8 9 11 12 14 15 8 3 4 6 8 9 10 11 12 11 12 7 6 8 11 13 9 9 12 11 11 12 12 12 12 16 19 20 21 21 21 22 23 24 24 25 26 27 29 30 30 30 33
10 12 14 13 12 12 11 11 13 15 13 11 11 11 11 10 9 8 5 4 5 8 8 9 9 10 10 11 11 3 5 3 1 5 9 10 8 10 11 14 12 9 7 8 8 10 11 9 9 11 12 12 11 11 11 11 12 16 17 18 19 19 20 22 23 24 24 26 27 29 30 30 30 22
9 10 11 16 15 13 13 13 13 15 14 11 11 10 9 9 9 8 7 7 6 5 5 5 6 7 8 8 7 6 1 1 2 4 4 5 6 10 12 10 9 9 7 4 3 8 9 9 10 9 11 12 9 8 11 10 8 9 10 10 11 17 19 21 23 24 24 26 27 28 29 28 26 17
9 10 9 10 15 19 18 16 14 15 16 13 11 9 9 9 9 6 6 5 5 5 4 4 5 5 4 5 5 6 5 4 4 4 5 6 8 9 8 8 8 9 8 5 5 9 9 8 10 8 8 10 12 7 8 11 11 10 10 10 10 13 16 19 18 22 23 23 25 26 28 27 25 15
9 8 8 7 10 15 17 17 17 16 17 17 13 10 9 9 6 6 4 5 6 5 4 5 5 5 5 6 6 7 5 5 4 5 6 7 7 8 8 8 8 9 9 7 6 7 9 7 9 9 10 9 13 14 13 13 11 9 8 8 10 11 9 11 11 12 16 22 24 25 24 25 26 19
8 8 6 6 8 13 15 16 16 17 17 19 10 9 9 7 8 4 3 4 4 4 4 4 4 5 5 5 7 6 5 6 6 5 5 6 6 7 7 8 8 9 8 6 8 8 8 9 8 9 10 9 13 12 14 13 12 9 8 7 8 10 10 10 11 12 12 12 14 15 18 25 26 27
9 6 6 6 8 12 14 15 16 16 18 14 9 9 10 8 8 6 4 4 4 4 4 4 4 4 4 5 8 8 6 5 5 5 5 5 6 7 7 8 9 10 10 9 8 9 8 10 8 9 11 10 12 13 12 13 12 9 8 7 8 9 10 10 11 12 11 12 12 20 23 25 25 25
9 7 6 6 10 12 14 15 15 16 15 12 13 11 13 10 9 5 4 4 4 3 3 4 4 4 4 5 6 6 6 5 4 5 5 5 7 8 8 9 9 10 11 10 9 9 9 10 10 10 11 11 11 12 13 12 13 12 12 8 9 9 9 10 11 12 12 11 12 12 13 16 14 15
8 6 5 8 10 11 13 14 14 13 14 15 12 12 10 11 5 4 4 4 4 4 4 7 8 8 7 6 5 5 5 5 4 5 6 6 7 7 8 9 9 10 9 8 9 9 9 9 10 10 10 9 10 12 11 14 14 15 11 11 12 9 7 8 11 12 13 12 12 14 14 14 16 15
11 10 9 9 10 11 12 11 10 6 6 10 11 11 11 4 4 4 4 4 4 5 6 8 6 5 4 4 4 3 3 4 6 5 6 5 6 5 6 7 8 8 9 9 9 9 9 9 10 11 10 10 10 12 12 12 15 15 12 11 11 14 12 6 8 9 11 14 16 15 16 15 16 15
6 6 7 7 9 9 11 8 8 8 9 9 7 5 3 4 3 4 4 4 4 5 4 4 6 5 3 2 3 4 4 5 5 4 5 5 6 5 6 7 9 8 7 7 8 8 8 9 9 10 11 11 10 12 12 12 15 16 14 12 10 12 12 11 11 11 14 17 17 16 15 15 15 15
5 6 7 9 7 7 7 6 5 4 3 3 4 4 3 3 3 3 3 2 3 4 3 3 3 3 3 4 5 4 4 5 5 4 4 5 6 5 5 7 9 7 7 6 7 9 9 9 10 10 11 11 12 12 10 11 14 14 15 14 12 13 12 13 13 12 13 15 17 16 15 15 16 15
5 6 6 7 6 6 7 6 5 4 4 3 3 4 3 3 3 3 3 4 4 3 3 4 4 5 4 5 4 4 5 5 4 4 4 5 6 6 6 8 9 8 8 7 5 6 6 8 9 11 11 12 13 13 12 13 14 12 12 15 12 13 12 10 12 15 14 14 17 17 16 14 15 13
7 7 6 7 8 10 8 7 7 6 6 5 4 3 4 3 3 3 4 3 3 2 3 4 4 5 4 5 4 4 5 5 4 4 5 6 6 6 7 8 9 8 8 8 7 6 6 7 8 9 11 13 14 16 15 14 15 12 11 12 12 14 13 11 14 15 13 13 14 19 18 16 12 14
7 7 7 9 8 6 6 5 6 5 5 5 4 4 4 3 3 3 3 4 2 2 4 4 4 4 4 5 4 5 5 5 5 4 5 5 6 8 7 8 9 8 8 8 8 6 6 7 7 9 9 10 11 13 19 18 12 14 11 12 11 13 14 12 13 12 12 14 13 18 22 19 16 13
6 6 6 6 7 6 5 5 4 4 4 4 4 3 3 4 4 4 4 3 3 4 4 5 4 5 5 4 4 5 5 4 5 5 5 5 6 7 7 8 8 9 8 8 8 6 6 7 7 8 10 10 9 12 10 19 25 12 10 14 12 12 13 14 14 14 15 16 15 16 18 20 18 12
6 6 6 5 6 6 6 5 5 5 4 5 4 4 5 5 4 4 3 4 4 4 5 4 5 4 4 4 4 4 4 5 6 5 6 5 6 6 7 8 8 8 9 8 7 7 6 7 6 7 9 10 11 12 14 1 10 17 15 15 16 14 15 15 14 15 15 14 17 14 17 20 17 16
6 6 6 5 5 5 5 4 5 5 5 4 4 4 4 3 2 3 4 4 4 5 5 5 5 5 5 4 4 5 5 5 6 6 6 6 6 7 7 8 8 7 8 9 7 8 6 7 7 7 8 11 12 13 14 11 7 8 12 14 16 16 13 15 16 15 16 15 14 16 16 15 20 19
5 5 5 6 5 6 6 6 5 5 4 4 4 3 3 3 3 3 4 4 4 4 4 5 5 4 5 5 5 5 5 5 6 6 6 6 6 7 7 7 8 8 8 9 7 7 7 9 8 8 8 9 12 12 12 16 18 11 12 21 17 17 16 14 18 17 17 16 17 15 14 18 23 31
3 3 3 4 5 5 4 3 3 3 3 3 3 3 3 3 3 4 4 4 4 4 4 4 4 4 5 5 5 6 7 8 8 8 7 7 7 8 9 9 9 10 10 12 11 9 8 9 9 8 8 10 11 13 15 17 18 19 17 19 27 23 19 16 16 17 17 18 15 15 20 16 13 17
3 3 2 2 3 3 3 3 2 2 2 2 2 2 2 3 3 4 4 4 3 4 4 4 4 5 5 5 5 6 7 6 6 7 7 8 8 9 9 9 10 9 10 13 11 10 9 8 8 10 11 12 14 13 15 13 16 14 12 12 13 21 25 23 19 18 20 18 17 19 16 16 20 17
3 3 3 2 3 3 2 2 2 2 2 2 2 3 3 3 4 4 3 4 5 5 4 4 4 5 5 5 5 6 6 6 6 6 6 6 7 8 9 8 10 10 10 12 10 11 9 8 9 10 11 11 10 10 14 13 16 16 14 13 13 17 23 27 29 28 22 20 18 18 19 20 15 17
2 2 3 2 2 2 2 2 2 2 1 2 2 3 3 3 3 4 4 4 4 4 5 4 4 4 5 5 5 5 6 6 6 6 8 8 8 9 8 9 10 10 11 13 14 13 12 11 9 9 9 9 10 10 15 15 15 16 17 18 15 15 13 21 27 30 31 34 33 27 21 19 17 20
2 2 2 2 2 2 2 2 1 1 1 1 2 2 3 3 4 4 4 4 4 4 4 4 4 5 5 5 5 5 6 6 6 8 9 8 8 8 9 10 10 11 11 12 13 13 12 11 10 9 10 11 10 11 15 15 17 16 16 18 17 14 18 13 15 22 23 25 29 32 36 35 33 34
2 2 2 2 2 2 2 1 1 1 1 2 2 3 3 3 4 3 4 4 4 4 5 5 5 5 5 5 5 6 6 6 8 8 8 8 8 8 9 10 10 10 11 10 11 14 11 11 10 9 11 12 11 13 15 15 17 16 18 17 20 18 12 14 14 17 17 14 17 28 31 31 32 33
Wind_Direction
103 97 86 102 108 102 98 96 91 89 88 76 56 18 33 2 304 271 255 256 245 174 185 276 163 174 221 265 292 294 296 309 322 304 296 298 298 312 320 317 315 318 321 322 324 323 322 321 321 319 318 317 316 316 316 317 315 315 317 316 316 321 323 319 317 315 314 313 313 314 317 317 316 315
120 121 120 126 132 133 142 130 124 137 132 140 131 114 81 9 337 323 300 296 284 267 186 224 263 191 226 257 282 289 291 288 276 298 292 293 292 311 307 303 302 309 316 320 320 319 319 319 319 318 315 315 315 316 316 315 315 315 315 316 317 318 317 317 315 314 313 312 313 314 315 315 315 314
158 156 159 172 160 165 169 169 173 168 190 177 182 176 185 205 218 266 276 277 282 187 267 247 219 249 269 276 275 270 269 253 249 283 284 280 295 295 286 283 291 297 306 313 314 315 315 315 315 315 313 313 314 314 314 315 317 316 317 317 316 316 315 314 313 313 312 312 312 313 313 313 313 312
199 190 197 201 202 190 199 200 200 200 202 209 210 205 213 216 219 233 249 255 266 262 262 267 264 239 249 263 272 271 265 248 220 262 274 282 281 278 292 289 289 294 300 307 311 312 312 312 312 311 312 312 312 311 312 314 315 317 316 315 313 313 313 312 312 312 311 311 311 311 312 311 311 311
221 220 224 221 225 215 228 224 217 221 218 220 231 230 229 232 224 223 240 254 267 270 263 263 264 264 247 259 258 263 261 266 268 260 267 271 274 281 283 289 287 288 294 299 305 307 307 307 306 307 309 309 308 310 311 312 313 313 312 311 311 312 312 312 311 311 310 310 310 310 310 311 310 309
218 229 234 238 234 225 231 241 237 232 229 225 233 232 230 236 235 224 236 252 260 270 275 268 257 254 236 262 260 259 266 266 273 274 274 268 262 267 276 280 282 283 285 291 296 301 302 302 302 302 304 305 309 310 311 311 311 311 310 310 310 311 311 310 310 309 309 308 308 308 309 310 309 308
217 220 228 236 235 222 225 231 237 236 234 230 232 236 233 235 238 234 228 244 257 263 266 267 271 265 255 251 266 267 267 268 267 271 269 266 266 261 268 271 272 272 276 281 290 293 294 296 297 297 299 302 304 305 307 308 308 309 310 311 310 309 309 308 308 307 308 307 307 308 309 308 307 306
225 223 228 231 231 228 231 232 231 232 231 234 236 239 240 237 239 240 236 233 250 262 270 263 259 262 266 263 262 265 261 260 264 265 273 269 264 267 266 267 269 269 273 278 281 286 291 292 290 290 292 294 296 298 300 301 303 306 307 306 306 305 305 305 305 306 306 306 307 307 307 306 305 305
236 235 234 236 233 231 238 241 235 232 229 230 236 242 243 241 240 239 238 240 241 251 257 263 258 256 256 261 267 268 273 273 268 267 264 268 270 273 274 272 269 273 274 274 275 279 283 283 282 283 284 287 290 291 293 298 301 302 301 300 299 300 300 301 302 303 305 305 305 305 304 304 304 304
235 238 240 239 236 234 235 242 244 239 234 231 234 239 243 243 242 241 242 242 243 244 252 257 264 250 248 254 251 252 251 265 276 277 275 273 268 268 271 269 274 280 281 287 283 281 279 273 274 275 281 285 287 290 293 295 296 296 296 297 296 296 297 299 301 303 303 302 303 303 303 303 304 303
235 236 238 239 235 233 234 238 240 241 236 231 232 235 239 240 240 243 243 243 242 242 250 252 250 256 250 246 258 250 239 248 260 278 283 277 266 268 273 281 279 281 282 275 273 272 273 279 281 281 282 287 286 284 288 293 293 291 291 292 294 295 297 300 301 301 301 302 303 303 303 303 302 301
234 235 235 236 235 234 234 234 238 237 240 235 236 237 234 233 236 241 245 243 243 246 245 246 252 245 251 247 243 244 241 251 253 238 252 276 288 285 280 275 283 284 282 285 283 272 273 273 272 279 283 280 282 285 290 288 286 285 287 289 293 295 296 298 299 300 301 302 301 301 301 300 300 300
233 234 236 236 236 231 234 235 237 238 236 239 245 243 235 234 235 241 243 243 245 246 245 249 245 247 246 247 248 246 238 241 259 278 279 276 274 279 281 277 271 274 281 285 286 290 292 287 286 289 289 287 286 285 284 283 279 281 285 291 293 294 296 299 301 301 301 301 301 301 301 300 298 297
234 232 232 232 233 235 236 237 239 240 240 239 241 248 246 240 239 238 241 242 241 244 246 245 245 248 245 244 242 246 252 264 270 264 263 272 283 286 279 278 265 282 294 293 290 284 285 289 290 287 286 287 282 281 283 281 284 288 291 293 295 297 298 301 302 303 303 303 302 302 300 299 298 297
240 235 232 236 233 231 236 237 237 234 232 231 232 236 241 245 246 246 242 243 239 242 247 249 246 247 253 251 250 253 263 262 259 268 273 277 281 280 291 292 295 273 180 287 289 286 289 288 286 284 280 282 280 276 275 280 283 286 290 293 296 298 300 302 302 303 303 302 301 300 298 298 297 297
242 241 238 235 233 228 229 229 232 228 228 231 231 232 233 234 237 240 244 249 247 241 246 249 245 247 251 258 248 254 256 263 267 266 270 269 274 281 280 284 285 297 304 298 296 289 285 278 279 281 277 275 273 269 272 276 280 283 286 291 294 297 300 301 302 302 301 299 298 297 296 296 296 295
240 241 240 241 236 234 224 227 235 239 235 225 228 232 235 236 236 238 237 238 242 255 253 250 253 245 257 259 257 261 269 283 275 274 267 266 271 278 280 279 282 283 302 299 291 289 287 287 283 278 277 272 272 271 270 272 275 279 284 287 292 298 299 299 299 299 297 296 295 294 294 294 294 294
237 237 238 240 243 242 228 223 228 231 237 242 234 231 234 238 236 234 236 237 235 236 247 253 253 254 248 258 276 283 263 265 270 275 276 281 283 276 273 279 279 283 286 283 294 286 283 282 281 279 281 277 275 271 272 274 276 280 282 285 289 295 297 298 297 297 296 295 294 293 293 294 294 293
237 237 237 238 245 247 241 225 214 224 231 235 237 238 237 235 237 234 228 223 228 230 230 241 249 256 261 263 273 275 264 260 265 273 281 284 282 283 277 269 264 270 277 284 281 277 285 288 284 281 285 284 278 276 276 275 276 279 281 285 289 292 296 296 295 293 293 293 293 292 293 293 291 290
235 236 235 238 239 241 241 232 209 216 229 237 239 239 239 239 235 233 227 227 220 226 226 227 236 246 258 258 263 273 276 273 276 282 283 275 268 273 276 275 283 282 285 262 260 274 282 290 286 286 284 284 280 279 277 277 278 279 281 285 287 290 290 289 288 288 289 290 291 292 292 290 290 290
236 232 231 230 237 238 240 232 209 210 211 233 236 237 236 234 228 226 186 168 188 206 223 238 244 250 250 254 259 263 268 281 283 266 274 271 279 282 283 284 284 282 281 261 255 274 284 288 286 289 287 287 285 281 276 275 275 276 279 283 286 286 286 284 284 285 287 289 291 290 290 290 290 292
233 232 224 227 235 240 239 231 207 211 203 224 231 234 234 230 225 220 189 157 192 207 224 236 244 250 259 263 273 266 119 133 316 262 265 281 287 280 279 284 286 285 279 270 267 271 272 291 292 293 293 288 273 271 271 272 275 278 276 278 279 279 277 277 279 283 285 289 289 288 288 288 291 294
231 235 227 220 226 232 239 231 214 212 208 224 228 227 224 226 222 214 185 180 183 187 200 222 228 243 243 248 242 235 148 229 260 266 274 285 271 277 281 278 287 288 272 268 241 268 281 293 292 300 303 294 279 257 268 273 271 273 280 281 280 275 275 274 277 281 282 284 284 288 288 288 291 291
229 230 233 219 215 225 231 234 224 220 213 221 227 212 215 221 222 189 176 179 178 196 198 216 223 234 248 243 243 248 245 243 238 253 270 274 274 274 271 272 266 267 278 284 280 281 289 289 287 293 287 297 300 298 286 281 278 274 277 283 276 275 277 278 279 278 279 280 283 285 289 288 290 289
232 229 223 222 207 217 227 230 229 224 220 221 223 209 213 217 194 141 169 176 186 198 214 224 228 235 239 243 251 256 246 256 270 270 270 265 260 263 268 271 269 267 272 278 288 281 283 289 286 290 281 271 274 290 290 288 279 273 267 267 273 274 269 274 280 281 280 283 284 285 286 287 288 284
231 223 220 222 199 206 220 226 223 221 221 215 198 211 201 167 148 179 162 142 162 195 190 203 220 226 235 242 253 253 261 268 270 266 264 263 259 260 261 265 272 275 273 285 300 292 291 282 279 286 282 282 280 280 294 292 288 280 269 262 252 268 276 276 277 276 278 281 285 287 288 288 288 284
237 219 220 222 193 203 214 220 219 216 216 196 199 190 187 175 189 136 140 137 153 166 182 191 205 219 229 249 260 268 267 267 266 265 265 264 265 268 267 269 272 273 282 288 284 278 274 275 278 271 278 280 284 290 281 286 294 300 286 273 266 266 272 275 276 278 279 278 278 285 290 287 289 286
239 229 217 204 185 205 211 212 210 213 207 194 196 193 201 202 167 133 136 163 170 176 191 212 226 229 243 251 261 262 263 263 269 271 276 276 275 276 275 273 271 268 273 275 276 272 269 272 274 268 269 274 276 280 287 285 282 285 289 294 286 276 270 270 275 277 278 282 285 289 293 296 291 290
239 237 193 172 190 202 204 200 199 198 199 204 201 202 187 148 147 149 163 162 171 204 215 243 252 255 252 247 255 263 269 277 282 275 271 269 270 273 274 271 266 264 263 260 260 259 257 260 266 270 269 264 266 272 275 281 290 288 292 302 296 289 275 271 275 276 279 280 287 290 287 289 291 286
241 238 218 195 193 195 191 186 192 183 182 189 194 170 143 150 146 165 166 178 194 224 239 249 246 247 249 246 249 267 277 273 266 267 270 271 270 266 268 273 264 246 241 243 249 255 258 259 262 268 272 267 262 268 270 280 280 280 288 285 287 292 277 261 263 275 281 286 292 287 289 284 280 280
225 202 182 188 190 185 181 153 123 134 142 142 138 134 146 148 164 166 192 202 211 228 232 241 255 251 249 265 268 260 253 256 258 258 265 269 273 272 270 273 275 271 255 233 235 243 253 261 262 266 267 269 268 260 267 269 274 280 285 283 282 275 290 292 282 278 288 292 291 285 279 278 278 274
165 161 160 158 142 131 129 135 135 130 131 129 140 145 147 146 137 145 135 169 227 237 242 250 244 259 253 255 253 256 252 255 258 253 254 258 272 272 274 273 267 269 273 251 238 234 234 245 257 263 262 264 268 272 270 267 267 274 280 279 273 273 274 279 285 287 290 291 288 281 276 276 276 274
129 144 161 170 152 161 162 158 153 148 148 152 146 134 139 146 150 166 192 202 215 200 208 233 242 250 249 253 250 252 257 253 252 254 256 259 258 271 260 259 269 274 277 276 259 252 240 239 242 251 258 265 265 267 271 274 266 261 263 271 279 275 273 274 281 289 293 285 280 280 278 273 270 268
163 174 172 175 178 180 179 176 178 183 183 182 177 167 176 164 179 185 198 211 206 196 219 238 241 242 245 253 252 254 258 269 262 252 248 265 268 265 263 266 268 267 269 272 273 270 269 265 264 264 265 256 253 250 249 254 264 265 257 264 269 275 276 281 287 285 278 273 283 289 285 280 270 271
181 177 178 190 193 179 179 177 184 175 180 190 179 174 173 184 183 191 196 212 193 198 221 229 233 236 237 246 253 256 262 267 271 266 258 250 263 263 260 264 271 272 271 276 277 277 275 278 283 283 276 268 266 256 226 222 246 254 263 260 257 268 280 286 283 281 281 281 281 282 286 283 280 277
193 185 183 180 190 178 179 190 172 170 182 178 179 168 172 198 190 189 214 179 174 213 215 223 227 229 233 241 246 254 260 261 265 258 260 253 252 258 260 262 267 272 270 269 275 276 275 279 283 285 290 293 288 288 292 212 214 227 248 270 274 271 277 286 286 284 283 282 278 276 279 286 285 279
185 183 185 177 176 176 186 181 177 182 173 182 178 178 189 198 180 173 169 148 191 214 219 221 233 231 237 237 243 248 250 254 260 262 260 260 259 261 264 265 258 260 269 266 270 273 267 272 273 276 281 287 285 283 277 321 240 242 242 262 276 279 286 290 287 283 276 274 277 269 276 282 283 284
190 173 183 177 165 169 173 177 182 191 185 169 171 175 186 178 144 146 145 182 205 213 215 220 229 229 234 236 242 252 249 247 256 262 261 256 259 260 259 268 273 272 272 275 271 263 259 257 259 257 268 275 286 283 295 298 278 245 243 259 271 281 286 286 282 278 282 280 270 277 275 270 280 285
191 173 175 184 184 179 188 188 179 184 165 159 172 178 182 171 168 171 188 205 203 206 216 224 225 227 229 236 244 242 247 254 250 252 257 257 257 263 268 270 276 278 275 278 272 263 262 261 248 247 246 258 266 277 288 293 287 277 274 267 267 276 274 272 276 279 280 280 283 274 263 272 276 277
188 148 157 166 174 165 163 149 156 162 157 175 173 181 179 194 197 200 206 205 202 211 217 228 229 230 238 235 235 250 253 249 250 259 259 261 263 263 268 272 275 281 285 281 281 270 255 251 251 251 262 266 277 283 283 280 279 280 277 266 255 255 260 268 269 275 278 278 279 285 287 282 276 287
130 160 124 129 122 138 145 146 153 137 161 151 154 163 194 204 206 216 210 206 204 214 225 230 225 228 238 237 238 243 255 254 247 252 260 265 262 260 261 267 273 270 273 278 274 268 257 251 254 266 277 277 278 283 279 272 271 272 269 267 255 262 263 263 267 273 277 283 288 282 281 287 293 289
151 138 136 136 138 130 130 127 127 145 162 171 187 192 197 209 223 212 217 222 226 229 232 232 231 234 235 233 236 237 245 251 256 255 253 259 272 274 269 259 266 272 267 271 271 272 279 285 282 278 274 272 270 267 267 264 273 281 280 280 279 269 268 266 266 266 271 278 282 286 290 290 286 282
152 128 134 117 95 106 113 122 133 162 185 180 196 205 206 217 218 210 224 217 217 221 231 237 236 233 238 239 238 241 246 253 255 259 265 261 262 266 268 267 264 266 266 271 279 282 285 286 280 277 274 267 264 257 266 272 273 277 284 286 284 290 277 272 268 275 278 275 275 275 273 277 290 289
126 113 91 105 115 117 117 131 141 152 177 205 207 211 228 228 232 230 223 225 227 232 237 236 238 236 237 240 243 248 248 251 259 264 265 265 263 260 264 269 267 266 268 271 280 281 287 286 280 277 277 269 267 268 268 275 275 277 278 284 285 283 286 282 279 265 265 270 266 265 270 273 270 271
94 92 103 102 108 109 113 128 157 172 187 212 223 229 232 239 242 242 237 232 236 242 239 241 240 244 242 242 244 248 251 254 261 260 262 264 262 263 263 265 268 270 267 270 279 283 287 285 284 281 273 270 268 266 271 268 274 281 282 281 283 282 274 281 277 292 287 278 280 278 273 279 280 279